{"data":{"norad_id":46805,"intl_designator":"2020-075A","name":"COSMOS 2547 (705K)","alt_names":[],"object_type":"PAYLOAD","status":"ACTIVE","operator":null,"country":"CIS","launch_date":"2020-10-25","launch_site_code":"PLMSC","launch_vehicle":null,"mission":null,"orbit_class":"UNKNOWN","rcs_meters":null,"size_class":null,"mass_kg":null,"dimensions":null,"purposes":["earth_obs","nav"],"wikipedia_slug":null,"has_3d_model":false,"image_url":null,"decayed_at":null,"tle_current":{"epoch":"2026-09-19T06:24:03.050208Z","epoch_age_seconds":120986,"freshness":"FRESH","line1":"1 46805U 20075A   26262.26670197 -.00000008  00000+0  00000+0 0  9990","line2":"2 46805  64.6006 189.3379 0008330 235.6169 124.3172  2.13099872 45913","mean_motion":2.13099872,"eccentricity":0.000833,"inclination_deg":64.6006,"raan_deg":189.3379,"arg_perigee_deg":235.6169,"mean_anomaly_deg":124.3172,"bstar":0,"rev_number":4591,"period_min":675.73949551692,"perigee_km":19108.808915644,"apogee_km":19151.30556725,"semimajor_km":25508.194241447,"source":"CELESTRAK","updated_at":"2026-09-20T09:00:46.278754Z"}}}